TimeAKDT,TemperatureF,Dew PointF,Humidity,Sea Level PressureIn,VisibilityMPH,Wind Direction,Wind SpeedMPH,Gust SpeedMPH,PrecipitationIn,Events,Conditions,WindDirDegrees,DateUTC
12:53 AM,41.0,19.9,43,29.98,10.0,Variable,6.9,-,N/A,,Clear,0,2012-10-11 08:53:00
1:53 AM,39.9,19.9,45,29.96,10.0,North,6.9,-,N/A,,Clear,10,2012-10-11 09:53:00
2:53 AM,39.0,19.9,46,29.94,10.0,NNE,6.9,-,N/A,,Clear,20,2012-10-11 10:53:00
3:53 AM,39.0,19.0,45,29.93,10.0,North,8.1,-,N/A,,Clear,360,2012-10-11 11:53:00
4:53 AM,37.0,18.0,46,29.91,10.0,NNE,4.6,-,N/A,,Clear,20,2012-10-11 12:53:00
5:53 AM,36.0,18.0,48,29.89,10.0,North,4.6,-,N/A,,Clear,360,2012-10-11 13:53:00
6:53 AM,30.0,19.9,66,29.87,10.0,Calm,Calm,-,N/A,,Clear,0,2012-10-11 14:53:00
7:53 AM,30.9,18.0,59,29.86,10.0,Calm,Calm,-,N/A,,Clear,0,2012-10-11 15:53:00
8:53 AM,33.1,17.1,52,29.85,10.0,North,6.9,-,N/A,,Clear,360,2012-10-11 16:53:00
9:53 AM,37.0,15.1,41,29.84,10.0,North,4.6,-,N/A,,Clear,10,2012-10-11 17:53:00
10:53 AM,39.9,12.0,32,29.83,10.0,NE,6.9,-,N/A,,Clear,40,2012-10-11 18:53:00
12:53 PM,39.9,14.0,35,29.80,10.0,NNE,6.9,-,N/A,,Clear,30,2012-10-11 20:53:00
1:53 PM,42.1,15.1,34,29.78,10.0,NE,6.9,-,N/A,,Clear,40,2012-10-11 21:53:00
2:53 PM,44.1,12.9,28,29.75,10.0,NE,9.2,-,N/A,,Clear,40,2012-10-11 22:53:00
3:53 PM,46.9,14.0,27,29.73,10.0,NNE,6.9,-,N/A,,Clear,20,2012-10-11 23:53:00
4:53 PM,46.9,14.0,27,29.70,10.0,NNE,5.8,-,N/A,,Clear,30,2012-10-12 00:53:00
5:53 PM,46.0,14.0,28,29.68,10.0,NNE,4.6,-,N/A,,Clear,30,2012-10-12 01:53:00
6:53 PM,43.0,12.9,30,29.65,10.0,North,3.5,-,N/A,,Clear,360,2012-10-12 02:53:00
7:53 PM,34.0,17.1,50,29.65,10.0,NE,3.5,-,N/A,,Clear,50,2012-10-12 03:53:00
8:53 PM,30.9,17.1,57,29.63,10.0,Calm,Calm,-,N/A,,Clear,0,2012-10-12 04:53:00
9:53 PM,37.0,12.0,36,29.62,10.0,North,4.6,-,N/A,,Clear,10,2012-10-12 05:53:00
10:53 PM,33.1,14.0,46,29.60,10.0,Calm,Calm,-,N/A,,Clear,0,2012-10-12 06:53:00
11:53 PM,30.9,15.1,52,29.58,10.0,Variable,3.5,-,N/A,,Clear,0,2012-10-12 07:53:00